Weather History for Driggs, ID

Change the Weather History Date:

Saturday, June 29, 2013

  Actual Average (KRXE) Record (KRXE)
Temperature  
Mean Temperature 69 °F 63 °F  
Max Temperature 90 °F 78 °F 96 °F (2013)
Min Temperature 48 °F 48 °F 41 °F (2014)
Degree Days  
Heating Degree Days 0 3  
Month to date heating degree days 168  
Since 1 June heating degree days 168  
Since 1 July heating degree days 8126  
Cooling Degree Days 4 1  
Month to date cooling degree days 17  
Year to date cooling degree days 21  
Since 1 June cooling degree days 17  
Growing Degree Days 19 (Base 50)    
Moisture  
Dew Point 45 °F    
Average Humidity 44    
Maximum Humidity 69    
Minimum Humidity 14    
Precipitation  
Precipitation 0.00 in 0.01 in 0.19 in (2010)
Month to date precipitation 1.35  
Year to date precipitation 7.22  
Sea Level Pressure  
Sea Level Pressure 30.04 in    
Wind  
Wind Speed 7 mph (ESE)    
Max Wind Speed 41 mph    
Max Gust Speed 52 mph    
Visibility 10 miles    
Events Rain , Thunderstorm    
T = Trace of Precipitation, MM = Missing Value Source: NWS Daily Summary

Daily Weather History Graph

Daily Weather History Graph

Search for Another Location

Airport:

Trip Planner

Search our weather history database for the weather conditions in past years. The results will help you decide how hot, cold, wet, or windy it might be!

Date:

Astronomy

Jun. 29, 2013 Rise Set
Actual Time 5:45 AM MDT 9:10 PM MDT
Civil Twilight 5:09 AM MDT 9:46 PM MDT
Nautical Twilight 4:22 AM MDT 10:33 PM MDT
Astronomical Twilight 3:23 AM MDT 11:32 PM MDT
Moon 12:27 AM MDT (6/29) 1:15 PM MDT (6/29)
Length of Visible Light 16h 36m
Length of Day
15h 24m
Waning Gibbous, 55% of the Moon is Illuminated
Jun 29
Waning Gibbous
Jun 29
Last Quarter
Jul 8
New
Jul 15
First Quarter
Jul 22
Full

Hourly Weather History & Observations

Time (MDT) Temp. Dew Point Humidity Pressure Visibility Wind Dir Wind Speed Gust Speed Precip Events Conditions
12:56 AM 52.9 °F 37.9 °F 57% 30.06 in 10.0 mi East 3.5 mph - N/A   Clear
1:56 AM 54.0 °F 38.8 °F 57% 30.04 in 10.0 mi Calm Calm - N/A   Clear
2:56 AM 54.9 °F 39.9 °F 57% 30.04 in 10.0 mi SE 4.6 mph - N/A   Clear
3:56 AM 48.9 °F 38.8 °F 68% 30.05 in 10.0 mi Variable 3.5 mph - N/A   Clear
4:56 AM 50.9 °F 41.0 °F 69% 30.04 in 10.0 mi East 4.6 mph - N/A   Clear
5:56 AM 48.9 °F 37.9 °F 66% 30.05 in 10.0 mi ENE 5.8 mph - N/A   Clear
6:56 AM 56.8 °F 41.9 °F 57% 30.02 in 10.0 mi NE 3.5 mph - N/A   Clear
7:56 AM 64.9 °F 47.8 °F 54% 30.02 in 10.0 mi East 4.6 mph - N/A   Clear
8:56 AM 73.9 °F 45.0 °F 35% 30.01 in 10.0 mi Calm Calm - N/A   Clear
9:56 AM 79.9 °F 43.9 °F 28% 30.02 in 10.0 mi Variable 3.5 mph - N/A   Clear
10:56 AM 83.8 °F 45.0 °F 26% 30.01 in 10.0 mi SW 6.9 mph - N/A   Clear
11:56 AM 88.0 °F 46.9 °F 24% 29.99 in 10.0 mi SSE 5.8 mph - N/A   Clear
12:56 PM 90.9 °F 34.9 °F 14% 30.00 in 10.0 mi NNW 5.8 mph - N/A   Clear
1:56 PM 86.0 °F 36.9 °F 17% 30.00 in 10.0 mi NW 5.8 mph - N/A Thunderstorm Partly Cloudy
2:08 PM 86.0 °F 39.2 °F 19% 30.27 in 10.0 mi West 8.1 mph - N/A   Partly Cloudy
2:56 PM 82.9 °F 39.9 °F 22% 29.97 in 10.0 mi South 9.2 mph - N/A   Scattered Clouds
3:56 PM 88.9 °F 41.9 °F 19% 29.96 in 10.0 mi South 15.0 mph - N/A   Clear
4:56 PM 82.9 °F 45.9 °F 27% 29.96 in 10.0 mi SW 11.5 mph - N/A   Clear
5:56 PM 82.9 °F 52.0 °F 34% 29.96 in 10.0 mi West 10.4 mph - 0.00 in Rain Light Rain
6:14 PM 80.6 °F 51.8 °F 37% 30.22 in 10.0 mi West 4.6 mph - 0.00 in   Partly Cloudy
6:25 PM 73.4 °F 48.2 °F 41% 30.24 in 10.0 mi NW 41.4 mph 51.8 mph 0.00 in   Mostly Cloudy
6:31 PM 73.4 °F 48.2 °F 41% 30.25 in 10.0 mi North 35.7 mph 51.8 mph 0.00 in Thunderstorm Scattered Clouds
6:56 PM 64.9 °F 52.9 °F 65% 30.05 in 10.0 mi NE 24.2 mph - 0.00 in Rain Light Rain
7:56 PM 70.9 °F 47.8 °F 44% 30.01 in 10.0 mi NE 10.4 mph - 0.00 in   Clear
8:56 PM 65.8 °F 54.0 °F 65% 29.96 in 10.0 mi SSE 9.2 mph - N/A   Partly Cloudy
9:56 PM 63.9 °F 52.0 °F 65% 29.98 in 10.0 mi SE 9.2 mph - N/A   Mostly Cloudy
10:56 PM 63.9 °F 50.9 °F 63% 29.99 in 10.0 mi Calm Calm - N/A   Clear
11:56 PM 64.9 °F 50.0 °F 58% 30.00 in 10.0 mi SSE 11.5 mph - 0.00 in   Partly Cloudy